This demonstration page uses our WeatherBlox Daily Observations layout. Learn more.

Left ArrowRight Arrow

44.8408, -93.29828

Hourly Observations for March 5, 2015

Temp ( °F °C ) Dew Point ( °F °C ) Humidity (%) Winds ( mph kmh ) Pressure ( in mb ) Visibility ( mi km ) Precip ( " mm )
12:53 am 00:53 Clear -3 -19.4 -13 -25 61 61 WNW 8 13 30.50 1033 10 16 0.00 0.00
1:53 am 01:53 Clear -4 -20 -12 -24.4 68 68 NW 7 11 30.52 1033 10 16 0.00 0.00
2:53 am 02:53 Clear -5 -20.6 -12 -24.4 72 72 WNW 7 11 30.51 1033 10 16 0.00 0.00
3:53 am 03:53 Clear -5 -20.6 -12 -24.4 72 72 W 5 7 30.51 1033 10 16 0.00 0.00
4:53 am 04:53 Clear -6 -21.1 -12 -24.4 75 75 WNW 5 7 30.53 1034 10 16 0.00 0.00
5:53 am 05:53 Clear -6 -21.1 -12 -24.4 75 75 W 5 7 30.54 1034 10 16 0.00 0.00
6:53 am 06:53 Sunny -6 -21.1 -12 -24.4 75 75 W 3 6 30.56 1035 10 16 0.00 0.00
7:53 am 07:53 Sunny -4 -20 -10 -23.3 75 75 WSW 5 7 30.58 1036 10 16 0.00 0.00
8:53 am 08:53 Sunny -2 -18.9 -8 -22.2 75 75 SSE 5 7 30.60 1036 10 16 0.00 0.00
9:53 am 09:53 Sunny 2 -16.7 -8 -22.2 63 63 SW 5 7 30.59 1036 10 16 0.00 0.00
10:53 am 10:53 Sunny 5 -15 -8 -22.2 54 54 WSW 5 7 30.58 1036 10 16 0.00 0.00
11:53 am 11:53 Sunny 8 -13.3 -6 -21.1 52 52 W 8 13 30.57 1035 10 16 0.00 0.00
12:53 pm 12:53 Sunny 9 -12.8 -5 -20.6 52 52 SW 6 9 30.55 1034 10 16 0.00 0.00
1:53 pm 13:53 Sunny 12 -11.1 -4 -20 48 48 SW 8 13 30.52 1034 10 16 0.00 0.00
2:53 pm 14:53 Sunny 13 -10.6 -3 -19.4 49 49 VRB 5 7 30.51 1033 10 16 0.00 0.00
3:53 pm 15:53 Sunny 15 -9.4 -1 -18.3 49 49 SSW 7 11 30.49 1033 10 16 0.00 0.00
4:53 pm 16:53 Sunny 15 -9.4 0 -17.8 51 51 SSW 8 13 30.47 1032 10 16 0.00 0.00
5:53 pm 17:53 Sunny 14 -10 0 -17.8 53 53 SSW 8 13 30.47 1032 10 16 0.00 0.00
6:53 pm 18:53 Clear 14 -10 0 -17.8 53 53 S 8 13 30.46 1031 10 16 0.00 0.00
7:53 pm 19:53 Clear 13 -10.6 0 -17.8 56 56 S 10 17 30.45 1031 10 16 0.00 0.00
8:53 pm 20:53 Clear 11 -11.7 1 -17.2 64 64 SSE 10 17 30.42 1030 10 16 0.00 0.00
9:53 pm 21:53 Clear 10 -12.2 1 -17.2 67 67 SSE 9 15 30.40 1030 10 16 0.00 0.00
10:53 pm 22:53 Clear 9 -12.8 0 -17.8 66 66 SSE 10 17 30.37 1028 10 16 0.00 0.00
11:53 pm 23:53 Clear 7 -13.9 0 -17.8 73 73 SE 9 15 30.33 1027 10 16 0.00 0.00

Powered by AerisWeather